Location: Wapato
(46.4478°N, 120.4212°W)
Time: 22:50:33
(UTC+00:00)

S-56A Canister/Altair - Pass Details

Date: 18 May 2026
Orbit: 633 x 2484 km, 38.9° (Epoch: 7 June)

Event Time Altitude Azimuth Distance (km) Brightness Sun altitude
Rises 04:36:45 0° 242° (WSW) 3,099 10.9 -9.9°
Reaches altitude 10° 04:39:27 10° 231° (SW) 2,072 9.9 -10.2°
Maximum altitude 04:43:23 29° 170° (S) 1,154 8.0 -10.7°
Enters shadow 04:46:31 14° 116° (ESE) 1,779 8.8 -11.1°
